New Philadelphia, OH

5:37 AM EDT on May 29, 2017 (GMT -0400)
Clever

Weather History for KPHD - October, 2012

Change the Weather History Date:

Sunday, October 28, 2012

  Actual Average Record
Temperature  
Mean Temperature 44 °F 49 °F  
Max Temperature 47 °F 60 °F 80 °F (1984)
Min Temperature 40 °F 37 °F 19 °F (1962)
Degree Days  
Heating Degree Days 21 16  
Month to date heating degree days 301 342  
Since 1 July heating degree days 443 448  
Cooling Degree Days 0 0  
Month to date cooling degree days 6 9  
Year to date cooling degree days 981 697  
Moisture  
Dew Point 39 °F    
Average Humidity 87    
Maximum Humidity 92    
Minimum Humidity 82    
Precipitation  
Precipitation 0.79 in 0.10 in 1.09 in (2015)
Month to date precipitation 2.83 2.50  
Year to date precipitation 25.95 32.71  
Sea Level Pressure  
Sea Level Pressure 29.98 in    
Wind  
Wind Speed 10 mph (North)    
Max Wind Speed 16 mph    
Max Gust Speed 23 mph    
Visibility 9 miles    
Events Rain    
T = Trace of Precipitation, MM = Missing Value Source: NWS Daily Summary

Daily Weather History Graph

Daily Weather History Graph

Search for Another Location

Airport or City:

Trip Planner

Search our weather history database for the weather conditions in past years. The results will help you decide how hot, cold, wet, or windy it might be!

Date:

Astronomy

Oct. 28, 2012 Rise Set
Actual Time 7:51 AM EDT 6:26 PM EDT
Civil Twilight 7:23 AM EDT 6:54 PM EDT
Nautical Twilight 6:51 AM EDT 7:26 PM EDT
Astronomical Twilight 6:19 AM EDT 7:58 PM EDT
Moon 5:43 PM EDT (10/28) 6:43 AM EDT (10/28)
Length of Visible Light 11h 31m
Length of Day
10h 35m
Waxing Gibbous, 99% of the Moon is Illuminated
Oct 28
Waxing Gibbous
Oct 29
Full
Nov 6
Last Quarter
Nov 13
New
Nov 20
First Quarter

Hourly Weather History & Observations

Time (EDT) Temp. Windchill Dew Point Humidity Pressure Visibility Wind Dir Wind Speed Gust Speed Precip Events Conditions
12:53 AM 46.9 °F - 42.1 °F 83% 30.06 in 10.0 mi North 8.1 mph - N/A   Overcast
1:53 AM 46.9 °F - 41.0 °F 80% 30.06 in 10.0 mi North 10.4 mph 17.3 mph N/A   Overcast
2:53 AM 46.0 °F 41.9 °F 41.0 °F 83% 30.06 in 10.0 mi North 8.1 mph - N/A   Overcast
3:25 AM 46.4 °F 41.5 °F 41.0 °F 81% 30.03 in 10.0 mi North 10.4 mph - N/A   Overcast
3:53 AM 46.0 °F 41.4 °F 39.9 °F 79% 30.04 in 10.0 mi North 9.2 mph 17.3 mph 0.00 in Rain Light Rain
4:53 AM 46.0 °F 40.6 °F 39.9 °F 79% 30.01 in 10.0 mi North 11.5 mph 18.4 mph 0.00 in   Overcast
5:43 AM 44.6 °F 39.7 °F 41.0 °F 87% 30.01 in 7.0 mi North 9.2 mph - 0.01 in Rain Light Rain
5:53 AM 45.0 °F 40.1 °F 41.0 °F 86% 30.03 in 6.0 mi North 9.2 mph - 0.01 in Rain Light Rain
6:44 AM 44.6 °F 40.7 °F 41.0 °F 87% 29.99 in 7.0 mi North 6.9 mph 16.1 mph 0.09 in Rain Light Rain
6:53 AM 44.1 °F 40.8 °F 41.0 °F 89% 30.01 in 7.0 mi North 5.8 mph - 0.10 in Rain Rain
7:10 AM 44.6 °F 39.7 °F 41.0 °F 87% 30.00 in 10.0 mi North 9.2 mph 18.4 mph 0.02 in Rain Light Rain
7:53 AM 44.1 °F 40.8 °F 41.0 °F 89% 30.02 in 6.0 mi NNW 5.8 mph - 0.05 in Rain Light Rain
8:53 AM 44.1 °F 40.1 °F 41.0 °F 89% 30.02 in 5.0 mi North 6.9 mph - 0.04 in Rain Light Rain
9:53 AM 43.0 °F 37.2 °F 39.9 °F 89% 30.01 in 5.0 mi North 10.4 mph - 0.06 in Rain Light Rain
10:53 AM 43.0 °F 38.2 °F 39.9 °F 89% 30.01 in 5.0 mi North 8.1 mph - 0.08 in Rain Rain
11:53 AM 44.1 °F 37.7 °F 39.9 °F 85% 30.01 in 10.0 mi North 12.7 mph 17.3 mph 0.05 in Rain Light Rain
12:53 PM 43.0 °F 37.2 °F 39.9 °F 89% 29.99 in 6.0 mi North 10.4 mph - 0.06 in Rain Light Rain
1:53 PM 44.1 °F 38.6 °F 39.9 °F 85% 29.96 in 9.0 mi North 10.4 mph 18.4 mph 0.05 in Rain Light Rain
2:53 PM 43.0 °F 37.7 °F 39.9 °F 89% 29.94 in 7.0 mi NNW 9.2 mph - 0.03 in Rain Light Rain
3:53 PM 42.1 °F 35.7 °F 39.0 °F 89% 29.94 in 10.0 mi North 11.5 mph - 0.01 in   Overcast
4:53 PM 43.0 °F 37.7 °F 39.0 °F 86% 29.94 in 10.0 mi North 9.2 mph 19.6 mph N/A   Overcast
5:53 PM 42.1 °F 37.1 °F 39.0 °F 89% 29.95 in 5.0 mi North 8.1 mph 18.4 mph 0.02 in Rain Light Rain
6:53 PM 42.1 °F 37.1 °F 39.0 °F 89% 29.95 in 10.0 mi NNW 8.1 mph - 0.03 in Rain Light Rain
7:22 PM 42.8 °F 37.0 °F 37.4 °F 81% 29.93 in 10.0 mi North 10.4 mph 17.3 mph 0.01 in Rain Light Rain
7:53 PM 42.1 °F 36.6 °F 37.9 °F 85% 29.96 in 10.0 mi NNW 9.2 mph - 0.03 in Rain Light Rain
8:17 PM 42.8 °F 37.5 °F 37.4 °F 81% 29.94 in 10.0 mi North 9.2 mph - 0.02 in Rain Light Rain
8:24 PM 42.8 °F 37.5 °F 37.4 °F 81% 29.94 in 9.0 mi NNW 9.2 mph - 0.02 in Rain Light Rain
8:50 PM 41.0 °F 34.3 °F 37.4 °F 87% 29.94 in 9.0 mi NNW 11.5 mph - 0.04 in Rain Light Rain
8:53 PM 41.0 °F 35.2 °F 37.9 °F 89% 29.96 in 9.0 mi North 9.2 mph - 0.04 in Rain Light Rain
9:21 PM 41.0 °F 34.7 °F 37.4 °F 87% 29.94 in 10.0 mi North 10.4 mph - 0.02 in Rain Light Rain
9:53 PM 41.0 °F 34.7 °F 37.9 °F 89% 29.95 in 10.0 mi North 10.4 mph - 0.03 in Rain Light Rain
10:07 PM 41.0 °F 35.8 °F 37.4 °F 87% 29.93 in 10.0 mi NNW 8.1 mph - 0.01 in Rain Light Rain
10:27 PM 39.2 °F 31.2 °F 37.4 °F 93% 29.93 in 10.0 mi NW 13.8 mph 21.9 mph 0.02 in Rain Light Rain
10:53 PM 39.9 °F 33.4 °F 37.0 °F 89% 29.94 in 8.0 mi North 10.4 mph - 0.02 in Rain Light Rain
11:27 PM 39.2 °F 31.6 °F 37.4 °F 93% 29.92 in 10.0 mi NNW 12.7 mph 18.4 mph 0.02 in Rain Light Rain
11:39 PM 39.2 °F 32.5 °F 37.4 °F 93% 29.91 in 9.0 mi NNW 10.4 mph 19.6 mph 0.03 in Rain Light Rain
11:46 PM 41.0 °F 34.3 °F 37.4 °F 87% 29.91 in 9.0 mi NNW 11.5 mph 17.3 mph 0.04 in Rain Light Rain
11:53 PM 41.0 °F 34.7 °F 37.0 °F 86% 29.93 in 10.0 mi NNW 10.4 mph - 0.04 in Rain Light Rain